Year,Month,Day,Hour,Minute,Value (Times are PST for temperature in C)
2015,08,19,00,00,21.00
2015,08,19,00,01,21.00
2015,08,19,00,02,20.90
2015,08,19,00,03,20.90
2015,08,19,00,04,20.90
2015,08,19,00,05,20.90
2015,08,19,00,06,20.90
2015,08,19,00,07,20.90
2015,08,19,00,08,20.80
2015,08,19,00,09,20.80
2015,08,19,00,10,20.80
2015,08,19,00,11,20.80
2015,08,19,00,12,20.80
2015,08,19,00,13,20.80
2015,08,19,00,14,20.70
2015,08,19,00,15,20.70
2015,08,19,00,16,20.70
2015,08,19,00,17,20.70
2015,08,19,00,18,20.70
2015,08,19,00,19,20.60
2015,08,19,00,20,20.60
2015,08,19,00,21,20.60
2015,08,19,00,22,20.60
2015,08,19,00,23,20.50
2015,08,19,00,24,20.50
2015,08,19,00,25,20.50
2015,08,19,00,26,20.40
2015,08,19,00,27,20.40
2015,08,19,00,28,20.40
2015,08,19,00,29,20.40
2015,08,19,00,30,20.30
2015,08,19,00,31,20.30
2015,08,19,00,32,20.30
2015,08,19,00,33,20.30
2015,08,19,00,34,20.30
2015,08,19,00,35,20.20
2015,08,19,00,36,20.20
2015,08,19,00,37,20.20
2015,08,19,00,38,20.20
2015,08,19,00,39,20.10
2015,08,19,00,40,20.10
2015,08,19,00,41,20.10
2015,08,19,00,42,20.10
2015,08,19,00,43,20.00
2015,08,19,00,44,20.00
2015,08,19,00,45,20.00
2015,08,19,00,46,20.00
2015,08,19,00,47,19.90
2015,08,19,00,48,19.90
2015,08,19,00,49,19.90
2015,08,19,00,50,19.80
2015,08,19,00,51,19.80
2015,08,19,00,52,19.80
2015,08,19,00,53,19.80
2015,08,19,00,54,19.80
2015,08,19,00,55,19.70
2015,08,19,00,56,19.70
2015,08,19,00,57,19.70
2015,08,19,00,58,19.70
2015,08,19,00,59,19.70
2015,08,19,01,00,19.60
2015,08,19,01,01,19.60
2015,08,19,01,02,19.60
2015,08,19,01,03,19.60
2015,08,19,01,04,19.60
2015,08,19,01,05,19.60
2015,08,19,01,06,19.60
2015,08,19,01,07,19.60
2015,08,19,01,08,19.60
2015,08,19,01,09,19.50
2015,08,19,01,10,19.50
2015,08,19,01,11,19.50
2015,08,19,01,12,19.40
2015,08,19,01,13,19.40
2015,08,19,01,14,19.40
2015,08,19,01,15,19.40
2015,08,19,01,16,19.40
2015,08,19,01,17,19.40
2015,08,19,01,18,19.40
2015,08,19,01,19,19.30
2015,08,19,01,20,19.30
2015,08,19,01,21,19.30
2015,08,19,01,22,19.30
2015,08,19,01,23,19.30
2015,08,19,01,24,19.30
2015,08,19,01,25,19.30
2015,08,19,01,26,19.20
2015,08,19,01,27,19.20
2015,08,19,01,28,19.20
2015,08,19,01,29,19.20
2015,08,19,01,30,19.20
2015,08,19,01,31,19.10
2015,08,19,01,32,19.10
2015,08,19,01,33,19.10
2015,08,19,01,34,19.10
2015,08,19,01,35,19.10
2015,08,19,01,36,19.00
2015,08,19,01,37,19.00
2015,08,19,01,38,19.00
2015,08,19,01,39,18.90
2015,08,19,01,40,18.90
2015,08,19,01,41,18.90
2015,08,19,01,42,18.90
2015,08,19,01,43,18.80
2015,08,19,01,44,18.80
2015,08,19,01,45,18.80
2015,08,19,01,46,18.80
2015,08,19,01,47,18.80
2015,08,19,01,48,18.80
2015,08,19,01,49,18.80
2015,08,19,01,50,18.80
2015,08,19,01,51,18.70
2015,08,19,01,52,18.70
2015,08,19,01,53,18.70
2015,08,19,01,54,18.70
2015,08,19,01,55,18.70
2015,08,19,01,56,18.70
2015,08,19,01,57,18.60
2015,08,19,01,58,18.60
2015,08,19,01,59,18.60
2015,08,19,02,00,18.60
2015,08,19,02,01,18.60
2015,08,19,02,02,18.60
2015,08,19,02,03,18.60
2015,08,19,02,04,18.60
2015,08,19,02,05,18.60
2015,08,19,02,06,18.50
2015,08,19,02,07,18.50
2015,08,19,02,08,18.40
2015,08,19,02,09,18.40
2015,08,19,02,10,18.40
2015,08,19,02,11,18.40
2015,08,19,02,12,18.40
2015,08,19,02,13,18.40
2015,08,19,02,14,18.40
2015,08,19,02,15,18.40
2015,08,19,02,16,18.40
2015,08,19,02,17,18.40
2015,08,19,02,18,18.40
2015,08,19,02,19,18.40
2015,08,19,02,20,18.40
2015,08,19,02,21,18.40
2015,08,19,02,22,18.40
2015,08,19,02,23,18.30
2015,08,19,02,24,18.30
2015,08,19,02,25,18.30
2015,08,19,02,26,18.30
2015,08,19,02,27,18.30
2015,08,19,02,28,18.30
2015,08,19,02,29,18.30
2015,08,19,02,30,18.30
2015,08,19,02,31,18.40
2015,08,19,02,32,18.40
2015,08,19,02,33,18.40
2015,08,19,02,34,18.30
2015,08,19,02,35,18.30
2015,08,19,02,36,18.40
2015,08,19,02,37,18.30
2015,08,19,02,38,18.30
2015,08,19,02,39,18.30
2015,08,19,02,40,18.30
2015,08,19,02,41,18.30
2015,08,19,02,42,18.30
2015,08,19,02,43,18.30
2015,08,19,02,44,18.20
2015,08,19,02,45,18.20
2015,08,19,02,46,18.20
2015,08,19,02,47,18.10
2015,08,19,02,48,18.10
2015,08,19,02,49,18.10
2015,08,19,02,50,18.10
2015,08,19,02,51,18.00
2015,08,19,02,52,18.00
2015,08,19,02,53,17.90
2015,08,19,02,54,17.90
2015,08,19,02,55,17.90
2015,08,19,02,56,17.90
2015,08,19,02,57,17.90
2015,08,19,02,58,17.80
2015,08,19,02,59,17.80
2015,08,19,03,00,17.80
2015,08,19,03,01,17.80
2015,08,19,03,02,17.80
2015,08,19,03,03,17.80
2015,08,19,03,04,17.70
2015,08,19,03,05,17.70
2015,08,19,03,06,17.70
2015,08,19,03,07,17.70
2015,08,19,03,08,17.70
2015,08,19,03,09,17.60
2015,08,19,03,10,17.60
2015,08,19,03,11,17.60
2015,08,19,03,12,17.60
2015,08,19,03,13,17.60
2015,08,19,03,14,17.60
2015,08,19,03,15,17.60
2015,08,19,03,16,17.50
2015,08,19,03,17,17.50
2015,08,19,03,18,17.50
2015,08,19,03,19,17.40
2015,08,19,03,20,17.40
2015,08,19,03,21,17.40
2015,08,19,03,22,17.40
2015,08,19,03,23,17.40
2015,08,19,03,24,17.40
2015,08,19,03,25,17.40
2015,08,19,03,26,17.40
2015,08,19,03,27,17.40
2015,08,19,03,28,17.40
2015,08,19,03,29,17.40
2015,08,19,03,30,17.40
2015,08,19,03,31,17.40
2015,08,19,03,32,17.40
2015,08,19,03,33,17.40
2015,08,19,03,34,17.40
2015,08,19,03,35,17.40
2015,08,19,03,36,17.40
2015,08,19,03,37,17.40
2015,08,19,03,38,17.40
2015,08,19,03,39,17.40
2015,08,19,03,40,17.40
2015,08,19,03,41,17.40
2015,08,19,03,42,17.40
2015,08,19,03,43,17.40
2015,08,19,03,44,17.40
2015,08,19,03,45,17.30
2015,08,19,03,46,17.40
2015,08,19,03,47,17.40
2015,08,19,03,48,17.40
2015,08,19,03,49,17.40
2015,08,19,03,50,17.40
2015,08,19,03,51,17.40
2015,08,19,03,52,17.40
2015,08,19,03,53,17.40
2015,08,19,03,54,17.40
2015,08,19,03,55,17.40
2015,08,19,03,56,17.40
2015,08,19,03,57,17.40
2015,08,19,03,58,17.30
2015,08,19,03,59,17.30
2015,08,19,04,00,17.30
2015,08,19,04,01,17.30
2015,08,19,04,02,17.30
2015,08,19,04,03,17.20
2015,08,19,04,04,17.20
2015,08,19,04,05,17.20
2015,08,19,04,06,17.10
2015,08,19,04,07,17.10
2015,08,19,04,08,17.10
2015,08,19,04,09,17.00
2015,08,19,04,10,17.00
2015,08,19,04,11,17.00
2015,08,19,04,12,16.90
2015,08,19,04,13,16.90
2015,08,19,04,14,16.90
2015,08,19,04,15,16.90
2015,08,19,04,16,16.80
2015,08,19,04,17,16.80
2015,08,19,04,18,16.80
2015,08,19,04,19,16.80
2015,08,19,04,20,16.80
2015,08,19,04,21,16.80
2015,08,19,04,22,16.70
2015,08,19,04,23,16.70
2015,08,19,04,24,16.70
2015,08,19,04,25,16.70
2015,08,19,04,26,16.70
2015,08,19,04,27,16.70
2015,08,19,04,28,16.60
2015,08,19,04,29,16.60
2015,08,19,04,30,16.60
2015,08,19,04,31,16.60
2015,08,19,04,32,16.60
2015,08,19,04,33,16.60
2015,08,19,04,34,16.60
2015,08,19,04,35,16.60
2015,08,19,04,36,16.60
2015,08,19,04,37,16.50
2015,08,19,04,38,16.50
2015,08,19,04,39,16.50
2015,08,19,04,40,16.40
2015,08,19,04,41,16.40
2015,08,19,04,42,16.40
2015,08,19,04,43,16.40
2015,08,19,04,44,16.30
2015,08,19,04,45,16.30
2015,08,19,04,46,16.30
2015,08,19,04,47,16.30
2015,08,19,04,48,16.30
2015,08,19,04,49,16.20
2015,08,19,04,50,16.20
2015,08,19,04,51,16.20
2015,08,19,04,52,16.20
2015,08,19,04,53,16.20
2015,08,19,04,54,16.10
2015,08,19,04,55,16.10
2015,08,19,04,56,16.10
2015,08,19,04,57,16.10
2015,08,19,04,58,16.10
2015,08,19,04,59,16.10
2015,08,19,05,00,16.10
2015,08,19,05,01,16.00
2015,08,19,05,02,16.00
2015,08,19,05,03,16.00
2015,08,19,05,04,16.00
2015,08,19,05,05,16.00
2015,08,19,05,06,15.90
2015,08,19,05,07,15.90
2015,08,19,05,08,15.90
2015,08,19,05,09,15.90
2015,08,19,05,10,15.90
2015,08,19,05,11,15.90
2015,08,19,05,12,15.90
2015,08,19,05,13,15.90
2015,08,19,05,14,15.80
2015,08,19,05,15,15.80
2015,08,19,05,16,15.80
2015,08,19,05,17,15.80
2015,08,19,05,18,15.80
2015,08,19,05,19,15.80
2015,08,19,05,20,15.80
2015,08,19,05,21,15.80
2015,08,19,05,22,15.80
2015,08,19,05,23,15.80
2015,08,19,05,24,15.80
2015,08,19,05,25,15.80
2015,08,19,05,26,15.80
2015,08,19,05,27,15.80
2015,08,19,05,28,15.80
2015,08,19,05,29,15.80
2015,08,19,05,30,15.80
2015,08,19,05,31,15.80
2015,08,19,05,32,15.80
2015,08,19,05,33,15.80
2015,08,19,05,34,15.80
2015,08,19,05,35,15.80
2015,08,19,05,36,15.70
2015,08,19,05,37,15.70
2015,08,19,05,38,15.80
2015,08,19,05,39,15.70
2015,08,19,05,40,15.70
2015,08,19,05,41,15.70
2015,08,19,05,42,15.70
2015,08,19,05,43,15.70
2015,08,19,05,44,15.70
2015,08,19,05,45,15.70
2015,08,19,05,46,15.70
2015,08,19,05,47,15.70
2015,08,19,05,48,15.70
2015,08,19,05,49,15.70
2015,08,19,05,50,15.70
2015,08,19,05,51,15.70
2015,08,19,05,52,15.70
2015,08,19,05,53,15.60
2015,08,19,05,54,15.60
2015,08,19,05,55,15.60
2015,08,19,05,56,15.60
2015,08,19,05,57,15.60
2015,08,19,05,58,15.60
2015,08,19,05,59,15.60
2015,08,19,06,00,15.60
2015,08,19,06,01,15.60
2015,08,19,06,02,15.60
2015,08,19,06,03,15.60
2015,08,19,06,04,15.60
2015,08,19,06,05,15.60
2015,08,19,06,06,15.60
2015,08,19,06,07,15.50
2015,08,19,06,08,15.50
2015,08,19,06,09,15.50
2015,08,19,06,10,15.50
2015,08,19,06,11,15.50
2015,08,19,06,12,15.50
2015,08,19,06,13,15.50
2015,08,19,06,14,15.50
2015,08,19,06,15,15.50
2015,08,19,06,16,15.50
2015,08,19,06,17,15.50
2015,08,19,06,18,15.50
2015,08,19,06,19,15.60
2015,08,19,06,20,15.60
2015,08,19,06,21,15.60
2015,08,19,06,22,15.60
2015,08,19,06,23,15.60
2015,08,19,06,24,15.50
2015,08,19,06,25,15.50
2015,08,19,06,26,15.50
2015,08,19,06,27,15.40
2015,08,19,06,28,15.40
2015,08,19,06,29,15.40
2015,08,19,06,30,15.40
2015,08,19,06,31,15.40
2015,08,19,06,32,15.40
2015,08,19,06,33,15.40
2015,08,19,06,34,15.40
2015,08,19,06,35,15.40
2015,08,19,06,36,15.40
2015,08,19,06,37,15.30
2015,08,19,06,38,15.30
2015,08,19,06,39,15.30
2015,08,19,06,40,15.30
2015,08,19,06,41,15.30
2015,08,19,06,42,15.30
2015,08,19,06,43,15.30
2015,08,19,06,44,15.30
2015,08,19,06,45,15.30
2015,08,19,06,46,15.30
2015,08,19,06,47,15.20
2015,08,19,06,48,15.20
2015,08,19,06,49,15.20
2015,08,19,06,50,15.20
2015,08,19,06,51,15.20
2015,08,19,06,52,15.20
2015,08,19,06,53,15.20
2015,08,19,06,54,15.20
2015,08,19,06,55,15.20
2015,08,19,06,56,15.20
2015,08,19,06,57,15.10
2015,08,19,06,58,15.10
2015,08,19,06,59,15.10
2015,08,19,07,00,15.10
2015,08,19,07,01,15.10
2015,08,19,07,02,15.10
2015,08,19,07,03,15.10
2015,08,19,07,04,15.20
2015,08,19,07,05,15.20
2015,08,19,07,06,15.20
2015,08,19,07,07,15.20
2015,08,19,07,08,15.20
2015,08,19,07,09,15.20
2015,08,19,07,10,15.20
2015,08,19,07,11,15.20
2015,08,19,07,12,15.20
2015,08,19,07,13,15.20
2015,08,19,07,14,15.20
2015,08,19,07,15,15.20
2015,08,19,07,16,15.20
2015,08,19,07,17,15.20
2015,08,19,07,18,15.20
2015,08,19,07,19,15.30
2015,08,19,07,20,15.30
2015,08,19,07,21,15.30
2015,08,19,07,22,15.30
2015,08,19,07,23,15.30
2015,08,19,07,24,15.30
2015,08,19,07,25,15.40
2015,08,19,07,26,15.40
2015,08,19,07,27,15.50
2015,08,19,07,28,15.50
2015,08,19,07,29,15.60
2015,08,19,07,30,15.60
2015,08,19,07,31,15.60
2015,08,19,07,32,15.70
2015,08,19,07,33,15.70
2015,08,19,07,34,15.80
2015,08,19,07,35,15.80
2015,08,19,07,36,15.90
2015,08,19,07,37,15.90
2015,08,19,07,38,16.00
2015,08,19,07,39,16.10
2015,08,19,07,40,16.10
2015,08,19,07,41,16.20
2015,08,19,07,42,16.20
2015,08,19,07,43,16.20
2015,08,19,07,44,16.30
2015,08,19,07,45,16.30
2015,08,19,07,46,16.40
2015,08,19,07,47,16.50
2015,08,19,07,48,16.60
2015,08,19,07,49,16.70
2015,08,19,07,50,16.70
2015,08,19,07,51,16.80
2015,08,19,07,52,16.90
2015,08,19,07,53,17.00
2015,08,19,07,54,17.10
2015,08,19,07,55,17.10
2015,08,19,07,56,17.20
2015,08,19,07,57,17.30
2015,08,19,07,58,17.30
2015,08,19,07,59,17.40
2015,08,19,08,00,17.50
2015,08,19,08,01,17.60
2015,08,19,08,02,17.70
2015,08,19,08,03,17.70
2015,08,19,08,04,17.80
2015,08,19,08,05,17.90
2015,08,19,08,06,17.90
2015,08,19,08,07,18.00
2015,08,19,08,08,18.10
2015,08,19,08,09,18.20
2015,08,19,08,10,18.20
2015,08,19,08,11,18.30
2015,08,19,08,12,18.30
2015,08,19,08,13,18.40
2015,08,19,08,14,18.40
2015,08,19,08,15,18.50
2015,08,19,08,16,18.60
2015,08,19,08,17,18.60
2015,08,19,08,18,18.70
2015,08,19,08,19,18.70
2015,08,19,08,20,18.80
2015,08,19,08,21,18.80
2015,08,19,08,22,18.90
2015,08,19,08,23,18.90
2015,08,19,08,24,18.90
2015,08,19,08,25,18.90
2015,08,19,08,26,18.90
2015,08,19,08,27,18.90
2015,08,19,08,28,18.90
2015,08,19,08,29,18.90
2015,08,19,08,30,18.90
2015,08,19,08,31,19.00
2015,08,19,08,32,19.10
2015,08,19,08,33,19.20
2015,08,19,08,34,19.30
2015,08,19,08,35,19.30
2015,08,19,08,36,19.40
2015,08,19,08,37,19.40
2015,08,19,08,38,19.50
2015,08,19,08,39,19.60
2015,08,19,08,40,19.60
2015,08,19,08,41,19.60
2015,08,19,08,42,19.60
2015,08,19,08,43,19.70
2015,08,19,08,44,19.70
2015,08,19,08,45,19.80
2015,08,19,08,46,19.90
2015,08,19,08,47,19.90
2015,08,19,08,48,20.00
2015,08,19,08,49,20.10
2015,08,19,08,51,20.20
2015,08,19,08,52,20.30
2015,08,19,08,53,20.30
2015,08,19,08,54,20.30
2015,08,19,08,55,20.30
2015,08,19,08,56,20.30
2015,08,19,08,57,20.30
2015,08,19,08,58,20.30
2015,08,19,08,59,20.30
2015,08,19,09,00,20.30
2015,08,19,09,01,20.20
2015,08,19,09,02,20.20
2015,08,19,09,03,20.20
2015,08,19,09,04,20.20
2015,08,19,09,05,20.20
2015,08,19,09,06,20.20
2015,08,19,09,07,20.30
2015,08,19,09,08,20.30
2015,08,19,09,09,20.40
2015,08,19,09,10,20.50
2015,08,19,09,11,20.60
2015,08,19,09,12,20.60
2015,08,19,09,13,20.70
2015,08,19,09,14,20.80
2015,08,19,09,15,20.80
2015,08,19,09,16,20.80
2015,08,19,09,17,20.80
2015,08,19,09,18,20.80
2015,08,19,09,19,20.80
2015,08,19,09,20,20.90
2015,08,19,09,21,20.90
2015,08,19,09,22,20.90
2015,08,19,09,23,20.90
2015,08,19,09,24,20.90
2015,08,19,09,25,20.90
2015,08,19,09,26,20.90
2015,08,19,09,27,21.00
2015,08,19,09,28,21.00
2015,08,19,09,29,21.00
2015,08,19,09,30,21.00
2015,08,19,09,31,21.00
2015,08,19,09,32,20.90
2015,08,19,09,33,20.90
2015,08,19,09,34,20.90
2015,08,19,09,35,20.90
2015,08,19,09,36,20.90
2015,08,19,09,37,20.90
2015,08,19,09,38,20.90
2015,08,19,09,39,20.90
2015,08,19,09,40,20.90
2015,08,19,09,41,20.90
2015,08,19,09,42,20.90
2015,08,19,09,43,20.90
2015,08,19,09,44,21.00
2015,08,19,09,45,21.10
2015,08,19,09,46,21.10
2015,08,19,09,47,21.20
2015,08,19,09,48,21.30
2015,08,19,09,50,21.50
2015,08,19,09,51,21.60
2015,08,19,09,52,21.70
2015,08,19,09,53,21.80
2015,08,19,09,54,21.90
2015,08,19,09,55,22.10
2015,08,19,09,56,22.20
2015,08,19,09,57,22.30
2015,08,19,09,58,22.40
2015,08,19,09,59,22.40
2015,08,19,10,00,22.60
2015,08,19,10,01,22.60
2015,08,19,10,02,22.70
2015,08,19,10,03,22.80
2015,08,19,10,04,22.90
2015,08,19,10,05,22.90
2015,08,19,10,06,23.00
2015,08,19,10,07,23.10
2015,08,19,10,08,23.10
2015,08,19,10,09,23.10
2015,08,19,10,10,23.10
2015,08,19,10,11,23.10
2015,08,19,10,12,23.10
2015,08,19,10,13,23.10
2015,08,19,10,14,23.00
2015,08,19,10,15,22.90
2015,08,19,10,16,23.00
2015,08,19,10,17,23.00
2015,08,19,10,18,23.10
2015,08,19,10,19,23.10
2015,08,19,10,20,23.10
2015,08,19,10,21,23.10
2015,08,19,10,22,23.20
2015,08,19,10,23,23.20
2015,08,19,10,24,23.20
2015,08,19,10,25,23.30
2015,08,19,10,26,23.30
2015,08,19,10,27,23.30
2015,08,19,10,28,23.30
2015,08,19,10,29,23.30
2015,08,19,10,30,23.30
2015,08,19,10,31,23.30
2015,08,19,10,32,23.30
2015,08,19,10,33,23.40
2015,08,19,10,34,23.50
2015,08,19,10,35,23.60
2015,08,19,10,36,23.70
2015,08,19,10,37,23.80
2015,08,19,10,38,23.80
2015,08,19,10,39,23.90
2015,08,19,10,40,23.90
2015,08,19,10,41,23.90
2015,08,19,10,42,23.90
2015,08,19,10,43,24.00
2015,08,19,10,44,24.10
2015,08,19,10,45,24.10
2015,08,19,10,46,24.20
2015,08,19,10,47,24.20
2015,08,19,10,48,24.30
2015,08,19,10,49,24.30
2015,08,19,10,50,24.30
2015,08,19,10,51,24.30
2015,08,19,10,52,24.30
2015,08,19,10,53,24.40
2015,08,19,10,54,24.60
2015,08,19,10,55,24.60
2015,08,19,10,56,24.70
2015,08,19,10,57,24.70
2015,08,19,10,58,24.80
2015,08,19,10,59,24.90
2015,08,19,11,00,25.00
2015,08,19,11,01,25.10
2015,08,19,11,02,25.20
2015,08,19,11,03,25.30
2015,08,19,11,04,25.40
2015,08,19,11,05,25.60
2015,08,19,11,06,25.70
2015,08,19,11,07,25.80
2015,08,19,11,08,25.80
2015,08,19,11,09,25.90
2015,08,19,11,10,26.00
2015,08,19,11,11,26.10
2015,08,19,11,12,26.10
2015,08,19,11,13,26.30
2015,08,19,11,14,26.30
2015,08,19,11,15,26.40
2015,08,19,11,16,26.50
2015,08,19,11,17,26.60
2015,08,19,11,18,26.60
2015,08,19,11,19,26.60
2015,08,19,11,20,26.60
2015,08,19,11,21,26.40
2015,08,19,11,22,26.30
2015,08,19,11,23,26.20
2015,08,19,11,24,26.00
2015,08,19,11,25,25.90
2015,08,19,11,26,25.90
2015,08,19,11,28,25.90
2015,08,19,11,29,25.90
2015,08,19,11,30,26.00
2015,08,19,11,31,26.10
2015,08,19,11,32,26.10
2015,08,19,11,33,26.10
2015,08,19,11,34,26.20
2015,08,19,11,35,26.20
2015,08,19,11,36,26.30
2015,08,19,11,37,26.30
2015,08,19,11,38,26.40
2015,08,19,11,39,26.40
2015,08,19,11,40,26.40
2015,08,19,11,41,26.50
2015,08,19,11,42,26.50
2015,08,19,11,43,26.50
2015,08,19,11,44,26.50
2015,08,19,11,45,26.50
2015,08,19,11,46,26.60
2015,08,19,11,47,26.60
2015,08,19,11,48,26.60
2015,08,19,11,49,26.60
2015,08,19,11,50,26.60
2015,08,19,11,51,26.70
2015,08,19,11,52,26.70
2015,08,19,11,53,26.80
2015,08,19,11,54,26.90
2015,08,19,11,55,27.00
2015,08,19,11,56,27.10
2015,08,19,11,57,27.00
2015,08,19,11,58,27.10
2015,08,19,12,00,27.20
2015,08,19,12,01,27.20
2015,08,19,12,02,27.30
2015,08,19,12,03,27.40
2015,08,19,12,04,27.50
2015,08,19,12,05,27.60
2015,08,19,12,06,27.70
2015,08,19,12,07,27.80
2015,08,19,12,08,28.00
2015,08,19,12,09,28.10
2015,08,19,12,10,28.20
2015,08,19,12,11,28.30
2015,08,19,12,12,28.50
2015,08,19,12,13,28.60
2015,08,19,12,14,28.80
2015,08,19,12,15,28.90
2015,08,19,12,16,28.90
2015,08,19,12,17,29.10
2015,08,19,12,18,29.20
2015,08,19,12,19,29.30
2015,08,19,12,20,29.40
2015,08,19,12,21,29.40
2015,08,19,12,22,29.40
2015,08,19,12,23,29.40
2015,08,19,12,24,29.50
2015,08,19,12,25,29.60
2015,08,19,12,26,29.60
2015,08,19,12,27,29.70
2015,08,19,12,28,29.70
2015,08,19,12,29,29.70
2015,08,19,12,30,29.60
2015,08,19,12,31,29.60
2015,08,19,12,32,29.60
2015,08,19,12,33,29.70
2015,08,19,12,34,29.70
2015,08,19,12,35,29.70
2015,08,19,12,36,29.70
2015,08,19,12,37,29.70
2015,08,19,12,38,29.80
2015,08,19,12,39,29.90
2015,08,19,12,40,29.90
2015,08,19,12,41,29.90
2015,08,19,12,42,29.90
2015,08,19,12,43,29.90
2015,08,19,12,44,29.90
2015,08,19,12,45,29.90
2015,08,19,12,46,29.80
2015,08,19,12,47,29.70
2015,08,19,12,48,29.70
2015,08,19,12,49,29.60
2015,08,19,12,50,29.60
2015,08,19,12,51,29.60
2015,08,19,12,52,29.70
2015,08,19,12,53,29.80
2015,08,19,12,54,29.80
2015,08,19,12,55,29.90
2015,08,19,12,56,29.90
2015,08,19,12,57,29.90
2015,08,19,12,58,29.90
2015,08,19,12,59,29.90
2015,08,19,13,00,29.90
2015,08,19,13,01,29.90
2015,08,19,13,02,30.00
2015,08,19,13,03,30.00
2015,08,19,13,04,30.00
2015,08,19,13,05,30.00
2015,08,19,13,06,30.10
2015,08,19,13,07,30.10
2015,08,19,13,08,30.10
2015,08,19,13,09,30.10
2015,08,19,13,10,30.10
2015,08,19,13,11,30.10
2015,08,19,13,12,30.10
2015,08,19,13,13,30.10
2015,08,19,13,14,30.10
2015,08,19,13,15,30.10
2015,08,19,13,16,30.20
2015,08,19,13,17,30.20
2015,08,19,13,18,30.20
2015,08,19,13,19,30.30
2015,08,19,13,20,30.30
2015,08,19,13,21,30.40
2015,08,19,13,22,30.40
2015,08,19,13,23,30.60
2015,08,19,13,24,30.60
2015,08,19,13,25,30.60
2015,08,19,13,26,30.60
2015,08,19,13,27,30.60
2015,08,19,13,28,30.60
2015,08,19,13,29,30.60
2015,08,19,13,30,30.70
2015,08,19,13,31,30.60
2015,08,19,13,33,30.60
2015,08,19,13,34,30.60
2015,08,19,13,36,30.60
2015,08,19,13,37,30.60
2015,08,19,13,38,30.60
2015,08,19,13,39,30.60
2015,08,19,13,40,30.60
2015,08,19,13,41,30.70
2015,08,19,13,42,30.70
2015,08,19,13,43,30.70
2015,08,19,13,44,30.70
2015,08,19,13,45,30.70
2015,08,19,13,46,30.80
2015,08,19,13,47,30.80
2015,08,19,13,48,30.90
2015,08,19,13,49,30.90
2015,08,19,13,50,30.90
2015,08,19,13,51,31.00
2015,08,19,13,52,31.00
2015,08,19,13,53,30.90
2015,08,19,13,54,30.90
2015,08,19,13,55,30.80
2015,08,19,13,56,30.80
2015,08,19,13,57,30.70
2015,08,19,13,58,30.60
2015,08,19,13,59,30.60
2015,08,19,14,00,30.60
2015,08,19,14,01,30.60
2015,08,19,14,02,30.60
2015,08,19,14,03,30.60
2015,08,19,14,04,30.70
2015,08,19,14,05,30.70
2015,08,19,14,06,30.80
2015,08,19,14,07,30.80
2015,08,19,14,08,30.80
2015,08,19,14,09,30.90
2015,08,19,14,10,30.90
2015,08,19,14,11,30.90
2015,08,19,14,12,30.90
2015,08,19,14,13,30.90
2015,08,19,14,14,31.00
2015,08,19,14,15,31.00
2015,08,19,14,16,31.00
2015,08,19,14,17,30.90
2015,08,19,14,18,30.90
2015,08,19,14,19,30.90
2015,08,19,14,20,30.80
2015,08,19,14,21,30.80
2015,08,19,14,22,30.80
2015,08,19,14,23,30.80
2015,08,19,14,24,30.80
2015,08,19,14,25,30.90
2015,08,19,14,26,30.90
2015,08,19,14,27,30.90
2015,08,19,14,28,30.90
2015,08,19,14,29,31.00
2015,08,19,14,30,31.00
2015,08,19,14,31,31.10
2015,08,19,14,32,31.10
2015,08,19,14,33,31.10
2015,08,19,14,34,31.10
2015,08,19,14,35,31.10
2015,08,19,14,36,31.20
2015,08,19,14,37,31.20
2015,08,19,14,38,31.30
2015,08,19,14,39,31.30
2015,08,19,14,40,31.30
2015,08,19,14,41,31.30
2015,08,19,14,42,31.30
2015,08,19,14,43,31.30
2015,08,19,14,44,31.20
2015,08,19,14,45,31.10
2015,08,19,14,46,31.00
2015,08,19,14,47,30.90
2015,08,19,14,48,30.90
2015,08,19,14,49,30.90
2015,08,19,14,50,30.80
2015,08,19,14,51,30.90
2015,08,19,14,52,30.90
2015,08,19,14,53,30.90
2015,08,19,14,54,30.90
2015,08,19,14,55,30.90
2015,08,19,14,56,30.90
2015,08,19,14,57,30.90
2015,08,19,14,58,31.00
2015,08,19,14,59,30.90
2015,08,19,15,00,30.90
2015,08,19,15,01,30.90
2015,08,19,15,02,31.00
2015,08,19,15,03,31.10
2015,08,19,15,04,31.20
2015,08,19,15,05,31.20
2015,08,19,15,06,31.20
2015,08,19,15,07,31.30
2015,08,19,15,08,31.30
2015,08,19,15,09,31.30
2015,08,19,15,10,31.20
2015,08,19,15,11,31.20
2015,08,19,15,12,31.20
2015,08,19,15,13,31.30
2015,08,19,15,14,31.40
2015,08,19,15,15,31.50
2015,08,19,15,16,31.70
2015,08,19,15,17,31.70
2015,08,19,15,18,31.70
2015,08,19,15,19,31.80
2015,08,19,15,20,31.90
2015,08,19,15,21,31.90
2015,08,19,15,22,31.90
2015,08,19,15,23,31.90
2015,08,19,15,24,31.90
2015,08,19,15,25,31.80
2015,08,19,15,26,31.70
2015,08,19,15,27,31.50
2015,08,19,15,28,31.30
2015,08,19,15,29,31.20
2015,08,19,15,30,31.10
2015,08,19,15,31,30.90
2015,08,19,15,32,30.80
2015,08,19,15,33,30.80
2015,08,19,15,34,30.70
2015,08,19,15,35,30.70
2015,08,19,15,37,30.50
2015,08,19,15,38,30.40
2015,08,19,15,39,30.40
2015,08,19,15,40,30.30
2015,08,19,15,41,30.30
2015,08,19,15,42,30.30
2015,08,19,15,43,30.20
2015,08,19,15,44,30.10
2015,08,19,15,45,30.10
2015,08,19,15,46,30.10
2015,08,19,15,47,30.00
2015,08,19,15,48,29.90
2015,08,19,15,49,29.90
2015,08,19,15,50,29.90
2015,08,19,15,51,29.90
2015,08,19,15,52,29.80
2015,08,19,15,53,29.80
2015,08,19,15,54,29.80
2015,08,19,15,55,29.90
2015,08,19,15,56,29.90
2015,08,19,15,57,29.90
2015,08,19,15,58,29.80
2015,08,19,15,59,29.80
2015,08,19,16,00,29.80
2015,08,19,16,01,29.80
2015,08,19,16,02,29.80
2015,08,19,16,03,29.80
2015,08,19,16,04,29.80
2015,08,19,16,05,29.80
2015,08,19,16,06,29.80
2015,08,19,16,07,29.80
2015,08,19,16,08,29.80
2015,08,19,16,09,29.70
2015,08,19,16,10,29.70
2015,08,19,16,11,29.60
2015,08,19,16,12,29.50
2015,08,19,16,13,29.50
2015,08,19,16,15,29.60
2015,08,19,16,16,29.60
2015,08,19,16,17,29.60
2015,08,19,16,18,29.60
2015,08,19,16,19,29.50
2015,08,19,16,20,29.40
2015,08,19,16,21,29.40
2015,08,19,16,22,29.30
2015,08,19,16,23,29.40
2015,08,19,16,24,29.50
2015,08,19,16,25,29.60
2015,08,19,16,26,29.70
2015,08,19,16,27,29.80
2015,08,19,16,28,29.90
2015,08,19,16,29,30.10
2015,08,19,16,30,30.30
2015,08,19,16,31,30.50
2015,08,19,16,32,30.70
2015,08,19,16,33,30.80
2015,08,19,16,34,30.80
2015,08,19,16,35,30.80
2015,08,19,16,36,30.70
2015,08,19,16,37,30.60
2015,08,19,16,38,30.40
2015,08,19,16,39,30.40
2015,08,19,16,40,30.40
2015,08,19,16,41,30.30
2015,08,19,16,42,30.20
2015,08,19,16,43,30.10
2015,08,19,16,44,29.90
2015,08,19,16,45,29.80
2015,08,19,16,46,29.70
2015,08,19,16,47,29.70
2015,08,19,16,48,29.70
2015,08,19,16,49,29.80
2015,08,19,16,50,29.80
2015,08,19,16,52,29.80
2015,08,19,16,53,29.80
2015,08,19,16,54,29.80
2015,08,19,16,55,29.70
2015,08,19,16,57,29.80
2015,08,19,16,58,29.80
2015,08,19,16,59,29.90
2015,08,19,17,00,30.10
2015,08,19,17,01,30.20
2015,08,19,17,03,30.40
2015,08,19,17,04,30.60
2015,08,19,17,05,30.70
2015,08,19,17,06,30.80
2015,08,19,17,07,30.80
2015,08,19,17,08,30.80
2015,08,19,17,09,30.70
2015,08,19,17,10,30.60
2015,08,19,17,11,30.20
2015,08,19,17,12,29.80
2015,08,19,17,13,29.70
2015,08,19,17,14,29.60
2015,08,19,17,15,29.50
2015,08,19,17,16,29.40
2015,08,19,17,17,29.40
2015,08,19,17,18,29.50
2015,08,19,17,19,29.60
2015,08,19,17,20,29.60
2015,08,19,17,21,29.70
2015,08,19,17,22,29.80
2015,08,19,17,23,29.90
2015,08,19,17,24,30.10
2015,08,19,17,25,30.10
2015,08,19,17,26,30.10
2015,08,19,17,27,30.20
2015,08,19,17,28,30.20
2015,08,19,17,29,30.20
2015,08,19,17,30,30.20